Location: Martin
(32.0982°N, 93.2193°W)
Time: 10:48:58
(UTC+00:00)

ISS - Visible Passes

Search period start: 09 December 2025 00:00
Search period end: 19 December 2025 00:00
Orbit: 416 x 421 km, 51.6° (Epoch: 08 December)

Date Brightness Start Highest point End Pass type
(mag) Time Alt. Az. Time Alt. Az. Time Alt. Az.
09 Dec -0.3 12:20:55 10° SSE 12:22:42 14° SE 12:24:29 10° E visible
11 Dec -2.7 12:20:11 10° SSW 12:23:27 50° SE 12:26:43 10° NE visible
12 Dec -1.4 11:32:50 10° S 11:35:38 25° SE 11:38:27 10° ENE visible
13 Dec -0.6 10:46:41 11° SSE 10:47:51 13° SE 10:49:31 10° E visible
13 Dec -3.3 12:21:07 10° WSW 12:24:19 41° NW 12:27:32 10° NNE visible
14 Dec -3.9 11:35:38 53° SW 11:36:20 82° NW 11:39:43 10° NE visible
15 Dec -0.9 10:50:54 15° ENE 10:50:54 15° ENE 10:51:39 10° ENE visible
15 Dec -1.9 12:23:54 12° WNW 12:25:21 15° NNW 12:27:27 10° N visible
16 Dec -1.8 11:38:44 18° N 11:38:44 18° N 11:40:01 10° NNE visible
